Asyut, Egypt

11:58 AM EET on July 26, 2017 (GMT +0200)
Asyut

Weather History for HEAT - October, 2012

Change the Weather History Date:

Friday, October 12, 2012

  Actual Average Record
Temperature  
Mean Temperature 78 °F -  
Max Temperature 92 °F 83 °F - ()
Min Temperature 64 °F 57 °F - ()
Cooling Degree Days 13    
Growing Degree Days 28 (Base 50)    
Moisture  
Dew Point 52 °F    
Average Humidity 41    
Maximum Humidity 60    
Minimum Humidity 17    
Precipitation  
Precipitation 0.00 in 0.00 in - ()
Sea Level Pressure  
Sea Level Pressure 29.96 in    
Wind  
Wind Speed 3 mph ()    
Max Wind Speed 9 mph    
Max Gust Speed -    
Visibility 6.0 miles    
Events      
T = Trace of Precipitation, MM = Missing Value Source: Averaged Metar Reports

Daily Weather History Graph

Daily Weather History Graph

Search for Another Location

Airport or City:

Trip Planner

Search our weather history database for the weather conditions in past years. The results will help you decide how hot, cold, wet, or windy it might be!

Date:

Astronomy

Oct. 12, 2012 Rise Set
Actual Time 5:54 AM EET 5:30 PM EET
Civil Twilight 5:30 AM EET 5:53 PM EET
Nautical Twilight 5:03 AM EET 6:20 PM EET
Astronomical Twilight 4:36 AM EET 6:47 PM EET
Moon 2:32 AM EET (10/12) 3:14 PM EET (10/12)
Length of Visible Light 12h 22m
Length of Day
11h 36m
Waning Crescent, 12% of the Moon is Illuminated
Oct 12
Waning Crescent
Oct 15
New
Oct 22
First Quarter
Oct 29
Full
Nov 7
Last Quarter

Hourly Weather History & Observations

Time (EET) Temp. Heat Index Dew Point Humidity Pressure Visibility Wind Dir Wind Speed Gust Speed Precip Events Conditions
12:00 AM 69.8 °F - 50.0 °F 49% 29.92 in - NNE 1.2 mph - N/A   Clear
1:00 AM 69.8 °F - 48.2 °F 46% 29.92 in - West 1.2 mph - N/A   Clear
2:00 AM 69 °F - 50 °F 40% 29.93 in 6 mi WNW 1.2 mph - -  
2:00 AM 69.8 °F - 50.0 °F 49% 29.92 in - WNW 1.2 mph - N/A   Clear
3:00 AM 68.0 °F - 50.0 °F 52% 29.92 in - NNW 3.5 mph - N/A   Clear
4:00 AM 66.2 °F - 50.0 °F 56% 29.92 in - North 2.3 mph - N/A   Clear
5:00 AM 66.2 °F - 50.0 °F 56% 29.95 in - North 2.3 mph - N/A   Clear
6:00 AM 66.2 °F - 51.8 °F 60% 29.95 in - NW 1.2 mph - N/A   Clear
7:00 AM 66.2 °F - 51.8 °F 60% 29.98 in - NW 1.2 mph - N/A   Clear
8:00 AM 71 °F - 54 °F 45% 30.00 in 6 mi NNW 1.2 mph - -  
8:00 AM 71.6 °F - 53.6 °F 53% 30.01 in - NNW 1.2 mph - N/A   Clear
9:00 AM 77.0 °F - 53.6 °F 44% 30.01 in - NNE 2.3 mph - N/A   Clear
10:00 AM 78.8 °F - 53.6 °F 42% 30.01 in - North 4.6 mph - N/A   Clear
11:00 AM 86.0 °F - 51.8 °F 31% 30.01 in - NE 5.8 mph - N/A   Clear
12:00 PM 86.0 °F - 51.8 °F 31% 29.98 in - NE 6.9 mph - N/A   Clear
1:00 PM 89.6 °F 87.7 °F 55.4 °F 31% 29.98 in - NE 4.6 mph - N/A   Clear
2:00 PM 91 °F - 52 °F 17% 29.90 in 6 mi NNE 9.2 mph - -  
3:00 PM 93.2 °F - 51.8 °F 24% 29.95 in - NE 5.8 mph - N/A   Clear
4:00 PM 93.2 °F - 51.8 °F 24% 29.92 in - NNE 8.1 mph - N/A   Clear
5:00 PM 87.8 °F - 50.0 °F 27% 29.95 in - North 9.2 mph - N/A   Clear
6:00 PM 84.2 °F - 50.0 °F 30% 29.95 in - North 8.1 mph - N/A   Clear
7:00 PM 82.4 °F - 50.0 °F 32% 29.95 in - North 5.8 mph - N/A   Clear
8:00 PM 79 °F - 55 °F 33% 29.95 in 6 mi North 5.8 mph - -  
8:00 PM 78.8 °F - 55.4 °F 44% 29.98 in - North 5.8 mph - N/A   Clear
9:00 PM 78.8 °F - 53.6 °F 42% 29.98 in - NNE 6.9 mph - N/A   Clear
10:00 PM 77.0 °F - 53.6 °F 44% 30.01 in - NNE 5.8 mph - N/A   Clear
11:00 PM 75.2 °F - 53.6 °F 47% 30.01 in - NNE 4.6 mph - N/A   Clear